Regional Weather Roundup
Issued by NWS Grand Forks, ND

Home | Current Version | Previous Version | Text Only | Print | Product List | Glossary On
Versions: 1 2 3 4 5 6 7 8 9 10 11 12 13 14 15 16 17 18 19 20 21 22 23 24 25 26 27 28 29 30 31 32 33 34 35 36 37 38 39 40 41 42 43 44 45 46 47 48 49 50
000
ASUS43 KFGF 061631
RWRFGF
PRAIRIE TO PINES  WEATHER ROUNDUP
NATIONAL WEATHER SERVICE EASTERN NORTH DAKOTA/GRAND FORKS ND
1100 AM CDT MON JUL 06 2015

 **SATELLITE DATA USED TO AUGMENT SKY COVER AT AUTOMATED STATIONS**
 *****  WEATHER ACROSS EASTERN NORTH DAKOTA  *****

CITY           SKY/WX    TMP DP  RH WIND       PRES   REMARKS
GRAND FORKS    MOSUNNY   62  49  62 N16       30.10R
GRAND FRKS AFB MOSUNNY   61  47  60 N14       30.10S
GRAND FRKS NWS   N/A     61 N/A N/A N15         N/A
DEVILS LAKE    PTSUNNY   61  48  63 N14       30.13R
FARGO          PTSUNNY   63  47  55 N26G32    30.06R
WAHPETON ARPT  MOSUNNY   63  48  59 N21G28    30.05R
$$

 ***** WEATHER ACROSS CENTRAL AND WESTERN NORTH DAKOTA  *****

CITY           SKY/WX    TMP DP  RH WIND       PRES   REMARKS
BISMARCK       CLOUDY    68  53  58 N8        30.15S HAZE
MINOT          CLOUDY    58  51  78 N8        30.16S SMOKE
JAMESTOWN      MOSUNNY   63  51  65 NE10      30.10F
MINOT AFB      MOSUNNY   61  55  82 NE7       30.16S
GARRISON         N/A     63  52  67 NW5       30.15S
WILLISTON      PTSUNNY   65  49  56 N5        30.20R
DICKINSON      MOSUNNY   65  51  60 NW6       30.18R
HETTINGER      MOSUNNY   66  50  56 N7        30.21R
$$

 *****  OTHER AIRPORT OBSERVATIONS IN OUR AREA  *****

CITY           SKY/WX    TMP DP  RH WIND       PRES   REMARKS
WALHALLA       FAIR      57  52  82 MISG      30.13F
GRAFTON AIRPOR FAIR      61  48  63 N15G21    30.12R
VALLEY CITY AR FAIR      63  50  63 N14G20    30.10S
CANDO          CLOUDY    57  50  77 N10       30.16S
CAVALIER APRT  PTSUNNY   59  48  67 N14G22    30.12S
GWINNER        FAIR      63  50  63 N16G23    30.09R
SHEYENNE NWR     N/A     61  50  66 N13       29.95S
ROLLA          CLOUDY    57  48  72 NW14      30.17S
 ***** THE ABOVE OBSERVATIONS ARE NON NWS ARE NOT QUALITY
       CONTROLLED AND MAY MIS-REPORT RAIN FOR SNOW...
$$

  *****  WEATHER ACROSS NORTHERN MINNESOTA  *****

CITY           SKY/WX    TMP DP  RH WIND       PRES   REMARKS
FLAG ISLAND    PTSUNNY   55  45  67 NW20G25   30.04S
WARROAD        CLOUDY    57  48  72 NW15      30.06S
ROSEAU         CLOUDY    57  48  72 NW14      30.07S
HALLOCK        CLOUDY    59  48  67 N14       30.10R
THF RVR FALLS  PTSUNNY   59  45  58 N16       30.08S
BAUDETTE       PTSUNNY   56  45  66 N21G29    30.02R
WASKISH        MOSUNNY   61  46  59 NW14G20   30.01S
CROOKSTON      PTSUNNY   61  48  63 N14G20    30.09S
STEPHEN NDAWN    N/A     59  48  67 N15         N/A
GREENBUSH NDAW   N/A     57  48  72 N12         N/A
$$
  *****  WEATHER ACROSS CENTRAL AND WEST MINNESOTA  *****

CITY           SKY/WX    TMP DP  RH WIND       PRES   REMARKS
FOSSTON        MOSUNNY   57  46  67 N20G26    30.07R
BEMIDJI        MOSUNNY   61  48  62 N17       30.02R
PARK RAPIDS    PTSUNNY   63  50  62 N16       29.99R
ELBOW LAKE     FAIR      65  56  70 N18G29    30.00R HAZE
WADENA         PTSUNNY   64  57  77 N16       29.99R HAZE
DETROIT LAKES  SUNNY     63  46  55 N14G29    30.04S
MOORHEAD       MOSUNNY   61  48  63 N18G26    30.07R
FERGUS FALLS   MOSUNNY   64  54  68 N14G21    30.01R
MORRIS MN      PTSUNNY   70  63  78 N18       29.98R HAZE
STAPLES        CLOUDY    63  57  82 N15       29.97R HAZE
$$
  *****  WEATHER ELSEWHERE ACROSS MINNESOTA  *****

CITY           SKY/WX    TMP DP  RH WIND       PRES   REMARKS
DULUTH         LGT RAIN  63  59  87 N10       29.90S FOG
INTRNTL FALLS  MOSUNNY   63  49  60 N13G20    29.97R
ELY              N/A     57  55  94 CALM      29.92S FOG
CLOQUET        LGT RAIN  63  59  88 N7        29.91R
WHEATON          N/A     63  55  77 N22G28    30.04R HAZE
BRAINERD       HAZE      64  59  83 N9        29.94R VSB 1
HIBBING        LGT RAIN  59  56  89 NW14      29.94R FOG
ALEXANDRIA     CLOUDY    66  60  81 N10G22    29.98R HAZE
SAINT CLOUD    LGT RAIN  64  61  90 N8        29.91R FOG
MINNEAPOLIS    LGT RAIN  68  66  93 N20G29    29.83R FOG
$$

  *****  WEATHER ACROSS SOUTH DAKOTA  *****

CITY           SKY/WX    TMP DP  RH WIND       PRES   REMARKS
SIOUX FALLS    CLOUDY    70  64  81 N18G26    29.96R HAZE
BROOKINGS      CLOUDY    64  59  82 N16       30.01S
WATERTOWN      CLOUDY    67  58  72 N15       30.02R HAZE
HURON          CLOUDY    70  62  76 N16       30.03R HAZE
SISSETON         N/A     65  55  70 N23       30.03R
ABERDEEN       CLOUDY    67  56  67 N18G24    30.09R HAZE
MITCHELL       CLOUDY    70  61  73 MISG      30.02R HAZE
PIERRE         MOSUNNY   72  57  59 N18       30.10S HAZE
MOBRIDGE       SUNNY     71  58  63 N13       30.11R HAZE
RAPID CITY     CLOUDY    61  54  77 NW14      30.24R
$$

  *****  SOME WEATHER IN NEARBY STATES *****

CITY           SKY/WX    TMP DP  RH WIND       PRES   REMARKS
GLASGOW MT     MOSUNNY   65  49  56 VRB5      30.22S
GREAT FALLS MT PTSUNNY   59  49  69 VRB5      30.23F
CHEYENNE WY    LGT RAIN  56  54  93 NE9       30.31R FOG
SCOTTSBLUFF NE CLOUDY    62  55  77 N13       30.24R HAZE
OMAHA NE       CLOUDY    75  72  90 S9        29.89R
DES MOINES IA  CLOUDY    78  72  81 E7        29.84F
DAVENPORT IA   CLOUDY    75  70  84 W10       29.95S
CHICAGO IL     CLOUDY    80  68  66 S15       29.97S
EAU CLAIRE WI  CLOUDY    72  69  90 S8        29.81R
LA CROSSE WI   CLOUDY    75  71  87 S8        29.82F
$$

  *****  SOME NATIONAL WEATHER *****

CITY           SKY/WX    TMP DP  RH WIND       PRES   REMARKS
LA GUARDIA NY  CLOUDY    82  63  52 S13       30.16S
RALEIGH NC     PTSUNNY   81  71  71 SW9       30.13F
ATLANTA GA     PTSUNNY   81  70  69 CALM      30.19S
NEW ORLEANS LA CLOUDY    86  76  71 SE6       30.17F HX  96
OKLAHOMA CITY  PTSUNNY   84  74  71 S21G28    29.96S HX  91
ALBUQUERQUE NM PTSUNNY   76  55  48 NW7       30.18F
SALT LAKE CITY MOSUNNY   81  58  45 CALM      30.11S
LOS ANGELES CA CLOUDY    64  60  87 SW7       30.07R
BOISE ID       SUNNY     81  50  33 CALM      30.08R
SEATTLE WA     MOSUNNY   65  55  70 SW5       30.02S
$$

*** WEATHER ACROSS MANITOBA...SASKATCHEWAN AND ONTARIO ***
                ***ONTARIO***

CITY           SKY/WX    TMP DP  RH WIND       PRES   REMARKS
GERALDTON      CLOUDY    63  57  82 W5        29.85S HAZE
THUNDER BAY    CLOUDY    63  59  88 W5        29.87S FOG
SIOUX LOOKOUT  CLOUDY    52  45  76 NW13G20   29.98R
TORONTO        MOSUNNY   77  61  57 SE9       30.08F
BIG TROUT LK   CLOUDY    48  45  87 NW22G35   29.80R
PICKLE LAKE    PTSUNNY   52  41  66 NW12G21   29.91S
DRYDEN         CLOUDY    52  43  71 N9        29.98S
KENORA         PTSUNNY   54  43  66 NW15      30.04R
$$
                *** MANITOBA***

CITY           SKY/WX    TMP DP  RH WIND       PRES   REMARKS
BRANDON        PTSUNNY   61  46  59 NW9       30.17R
DAUPHIN        MOSUNNY   59  46  63 N9        30.18R
ISLAND LAKE    PTSUNNY   55  45  67 N18G24    30.00R
PILOT MOUND      N/A     57  46  67 NW10        N/A
THE PAS        MOSUNNY   63  39  42 W9        30.13F
THOMPSON       PTSUNNY   61  43  51 W7G18     30.03F
WINNIPEG       PTSUNNY   57  46  67 N12G18    30.13R
LYNN LAKE      SUNNY     68  45  42 W7        30.02S
CHURCHILL      MOSUNNY   52  41  66 N14       29.89S
GILLAM         MOSUNNY   57  41  54 NW20G28   29.94S
$$
                ***SASKATCHEWAN***

CITY           SKY/WX    TMP DP  RH WIND       PRES   REMARKS
ESTEVAN        PTSUNNY   61  45  55 N12       30.20S
KINDERSLEY     PTSUNNY   59  50  72 VRB6      30.21F
LLOYDMINSTER   CLOUDY    57  46  67 W6        30.18F
PRINCE ALBERT    N/A     57  48  72 W5        30.18S SMOKE
REGINA         MOSUNNY   63  41  45 VRB2      30.22F
YORKTON        SUNNY     59  45  58 NW5       30.20S
N. BATTLEFORD  SUNNY     57  48  72 SW3       30.22S
LA RONGE       NOT AVBL
SASKATOON      MOSUNNY   63  46  55 SW5       30.21F
SWIFT CURRENT  SUNNY     61  48  63 W3        30.22F
$$
NOTE: THESE ARE AUTOMATED STATIONS WITH LIMITED QUALITY CONTROL
      "FAIR" INDICATES FEW OR NO CLOUDS BELOW 12,000 FEET WITH NO
      SIGNIFICANT WEATHER AND/OR OBSTRUCTIONS TO VISIBILITY.
      SKY/WX - SKY CONDITION AND SIGNIFICANT WEATHER.
      TMP - AIR TEMPERATURE.    DP   - DEWPOINT TEMPERATURE.
      RH  - RELATIVE HUMIDITY.  PRES - PRESSURE.
      HX  - HEAT INDEX.         WCI  - WIND CHILL INDEX.
$


USA.gov is the U.S. government's official web portal to all federal, state and local government web resources and services.